Miscellaneous Local Product
Issued by NWS Hastings, NE

Home | Current Version | Previous Version | Graphics & Text | Print | Product List | Glossary On
Versions: 1 2 3 4 5 6 7 8 9 10 11 12 13 14 15 16 17 18 19 20 21 22 23 24 25 26 27 28 29 30 31 32 33 34 35 36 37 38 39 40 41 42 43 44 45 46 47 48 49 50
803
AXUS43 KGID 220102
MISGRI

GID CWA HOURLY WEATHER ROUNDUP
NATIONAL WEATHER SERVICE HASTINGS NE
800 PM CDT SAT APR 21 2018

NOTE: "FAIR" INDICATES FEW OR NO CLOUDS BELOW 12,000 FEET WITH NO
SIGNIFICANT WEATHER AND/OR OBSTRUCTIONS TO VISIBILITY.

...SOUTH CENTRAL NEBRASKA...

CITY           SKY/WX    TMP DP  RH WIND       PRES   REMARKS
GRAND ISLAND   CLOUDY    45  39  79 NE5       30.24R
KEARNEY        CLOUDY    43  39  86 NE6       30.24R
HASTINGS       CLOUDY    44  42  93 N6        30.23R
ORD            CLOUDY    45  38  76 E3        30.24R
YORK             N/A     46  39  76 CALM      30.24R
AURORA         CLOUDY    43  40  89 NE5       30.23R
LEXINGTON      CLOUDY    44  39  84 CALM      30.24R
HOLDREGE       CLOUDY    42  41  95 E6        30.23R
HEBRON         CLOUDY    46  42  85 CALM      30.22S

...NEBRASKA PANHANDLE...

CITY           SKY/WX    TMP DP  RH WIND       PRES   REMARKS
CHADRON        CLEAR     46  36  68 S12       30.16S
ALLIANCE       CLOUDY    41  36  82 SE13      30.18S
SCOTTSBLUFF    PTCLDY    45  38  76 E9        30.16F
SIDNEY         CLOUDY    41  33  73 SE6       30.19S

...WESTERN AND NORTH CENTRAL NEBRASKA...

CITY           SKY/WX    TMP DP  RH WIND       PRES   REMARKS
VALENTINE      MOCLDY    48  35  60 SE10      30.23S
AINSWORTH      CLOUDY    45  38  78 E7        30.24S
ONEILL         CLOUDY    47  37  68 E5        30.26S
BROKEN BOW     CLOUDY    44  38  79 SE3       30.23S
IMPERIAL       CLOUDY    42  39  89 CALM      30.22S
NORTH PLATTE   CLOUDY    44  37  76 SE6       30.23R
MCCOOK         CLOUDY    43  39  86 E10       30.23R

...EASTERN NEBRASKA...

CITY           SKY/WX    TMP DP  RH WIND       PRES   REMARKS
NORFOLK        CLOUDY    48  35  60 NE5       30.24R
SO SIOUX CITY  CLOUDY    51  37  58 E10       30.27R
TEKAMAH        CLOUDY    50  34  54 NE6       30.25S
COLUMBUS       CLOUDY    47  33  58 N3        30.24S
ALBION         CLOUDY    46  37  68 N6        30.25S
OMAHA EPPLEY   CLOUDY    52  35  52 N6        30.24S
OFFUTT AFB     MOCLDY    53  33  47 NE7       30.22S
MILLARD        MOCLDY    55  35  47 CALM      30.24S
LINCOLN        CLOUDY    49  36  61 E10       30.23S
NEBRASKA CITY  CLOUDY    53  36  52 NE8       30.20S
BEATRICE       CLOUDY    50  40  69 NE6       30.20S
FALLS CITY     CLOUDY    53  36  52 NE7       30.17S

...NORTHERN KANSAS...

CITY           SKY/WX    TMP DP  RH WIND       PRES   REMARKS
GOODLAND       CLOUDY    40  38  93 NE6       30.21R
HILL CITY      CLOUDY    44  43  96 N9        30.22R
NORTON         CLOUDY    43  39  87 N5        30.21S
PHILLIPSBURG   CLOUDY    45  45 100 N3        30.23R
SMITH CENTER   CLOUDY    43  39  87 N7        30.23R
BELOIT         CLOUDY    43  41  93 CALM      30.22R
HAYS           CLOUDY    44  43  96 NE9       30.20R
RUSSELL        CLOUDY    45  45 100 N8        30.19R
CONCORDIA      LGT RAIN  45  42  89 N6        30.20R
SALINA         LGT RAIN  46  45  96 NE6       30.19R FOG
TOPEKA         CLOUDY    50  44  80 NW9       30.13S



USA.gov is the U.S. government's official web portal to all federal, state and local government web resources and services.